Location: Wolf Lake
(46.8518°N, 80.6381°W)
Time: 09:53:53
(UTC-04:00)

ISS - Pass Details

Date: 20 March 2026
Orbit: 416 x 425 km, 51.6° (Epoch: 19 April)

Event Time Altitude Azimuth Distance (km) Brightness Sun altitude
Rises 20:14:56 0° 279° (W) 2,387 2.8 -7.6°
Reaches altitude 10° 20:17:09 10° 289° (WNW) 1,520 0.7 -7.9°
Maximum altitude 20:20:20 35° 357° (N) 707 -2.5 -8.5°
Drops below altitude 10° 20:23:30 10° 65° (ENE) 1,516 -1.4 -9.0°
Enters shadow 20:23:43 - 67° (ENE) 1,595 -1.3 -9.0°
